Weather History for Crane Lake, MN

Change the Weather History Date:

Monday, April 30, 2012

  Actual Average Record
Temperature  
Mean Temperature 48 °F -  
Max Temperature 60 °F 57 °F 78 °F (1999)
Min Temperature 37 °F 30 °F 5 °F (1999)
Degree Days  
Heating Degree Days 16    
Moisture  
Dew Point 38 °F    
Average Humidity 71    
Maximum Humidity 100    
Minimum Humidity 42    
Precipitation  
Precipitation 0.08 in - - ()
Sea Level Pressure  
Sea Level Pressure 29.86 in    
Wind  
Wind Speed 3 mph (South)    
Max Wind Speed 8 mph    
Max Gust Speed 16 mph    
Visibility 10 miles    
Events Rain    
Averages and records for this station are not official NWS values.
T = Trace of Precipitation, MM = Missing Value Source: NWS Daily Summary

Daily Weather History Graph

Daily Weather History Graph

Search for Another Location

Airport:

Trip Planner

Search our weather history database for the weather conditions in past years. The results will help you decide how hot, cold, wet, or windy it might be!

Date:

Astronomy

Apr. 30, 2012 Rise Set
Actual Time 5:51 AM CDT 8:23 PM CDT
Civil Twilight 5:17 AM CDT 8:58 PM CDT
Nautical Twilight 4:33 AM CDT 9:42 PM CDT
Astronomical Twilight 3:42 AM CDT 10:33 PM CDT
Moon 1:53 PM CDT 2:46 AM CDT
Length of Visible Light 15h 41m
Length of Day
14h 31m
Waxing Gibbous, 64% of the Moon is Illuminated
Apr 30
Waxing Gibbous
May 5
Full
May 12
Last Quarter
May 20
New
May 28
First Quarter

Hourly Weather History & Observations

Time (CDT) Temp. Windchill Dew Point Humidity Pressure Visibility Wind Dir Wind Speed Gust Speed Precip Events Conditions
12:13 AM 44.6 °F 43.1 °F 32.0 °F 61% 30.03 in 10.0 mi SSE 3.5 mph - N/A Rain Rain
12:33 AM 44.6 °F 42.2 °F 33.8 °F 66% 30.02 in 10.0 mi SSE 4.6 mph - N/A   Light Drizzle
12:53 AM 42.8 °F - 37.4 °F 81% 30.01 in 7.0 mi Calm Calm - N/A Rain Light Rain
1:13 AM 41.0 °F - 37.4 °F 87% 30.00 in 10.0 mi Calm Calm - 0.02 in Rain Light Rain
1:33 AM 41.0 °F - 37.4 °F 87% 29.99 in 10.0 mi Calm Calm - 0.04 in Rain Light Rain
1:53 AM 41.0 °F - 39.2 °F 93% 29.99 in 7.0 mi Calm Calm - 0.05 in   Drizzle
2:33 AM 41.0 °F - 39.2 °F 93% 29.97 in 10.0 mi Calm Calm - 0.03 in Rain Light Rain
2:53 AM 39.2 °F - 39.2 °F 100% 29.97 in 7.0 mi Calm Calm - 0.03 in Rain Light Rain
3:13 AM 39.2 °F - 39.2 °F 100% 29.96 in 7.0 mi Calm Calm - N/A   Mostly Cloudy
3:33 AM 39.2 °F - 39.2 °F 100% 29.95 in 5.0 mi Calm Calm - N/A   Mostly Cloudy
3:53 AM 39.2 °F - 39.2 °F 100% 29.95 in 10.0 mi Calm Calm - N/A   Mostly Cloudy
4:13 AM 39.2 °F - 39.2 °F 100% 29.95 in 10.0 mi Calm Calm - N/A   Mostly Cloudy
4:33 AM 39.2 °F - 39.2 °F 100% 29.95 in 10.0 mi Calm Calm - N/A   Scattered Clouds
4:53 AM 39.2 °F - 37.4 °F 93% 29.95 in 10.0 mi Calm Calm - N/A   Scattered Clouds
5:13 AM 39.2 °F - 37.4 °F 93% 29.95 in 10.0 mi Calm Calm - N/A   Scattered Clouds
5:33 AM 37.4 °F - 37.4 °F 100% 29.94 in 10.0 mi Calm Calm - N/A   Scattered Clouds
5:53 AM 39.2 °F 37.0 °F 37.4 °F 93% 29.94 in 10.0 mi SSE 3.5 mph - N/A   Mostly Cloudy
6:13 AM 41.0 °F 39.0 °F 35.6 °F 81% 29.94 in 10.0 mi SE 3.5 mph - N/A   Overcast
6:33 AM 41.0 °F 38.0 °F 35.6 °F 81% 29.93 in 10.0 mi SSE 4.6 mph - N/A   Mostly Cloudy
6:53 AM 42.8 °F 40.1 °F 33.8 °F 70% 29.94 in 10.0 mi SSE 4.6 mph - N/A   Mostly Cloudy
7:13 AM 42.8 °F 39.3 °F 35.6 °F 76% 29.94 in 10.0 mi SSE 5.8 mph - N/A   Mostly Cloudy
7:33 AM 42.8 °F 41.1 °F 35.6 °F 76% 29.94 in 10.0 mi SSE 3.5 mph - N/A   Mostly Cloudy
7:53 AM 42.8 °F 41.1 °F 35.6 °F 76% 29.93 in 10.0 mi SSE 3.5 mph - N/A   Mostly Cloudy
8:13 AM 42.8 °F 41.1 °F 35.6 °F 76% 29.92 in 10.0 mi SSE 3.5 mph - N/A   Overcast
8:33 AM 44.6 °F 43.1 °F 35.6 °F 71% 29.92 in 10.0 mi SSE 3.5 mph - N/A   Overcast
8:53 AM 44.6 °F - 37.4 °F 76% 29.91 in 10.0 mi Calm Calm - N/A   Mostly Cloudy
9:13 AM 44.6 °F - 37.4 °F 76% 29.89 in 10.0 mi Calm Calm - N/A   Mostly Cloudy
9:33 AM 46.4 °F 42.9 °F 37.4 °F 71% 29.89 in 10.0 mi South 6.9 mph - N/A   Mostly Cloudy
9:53 AM 48.2 °F - 37.4 °F 66% 29.87 in 10.0 mi SSE 6.9 mph - N/A   Scattered Clouds
10:16 AM 50.0 °F - 39.2 °F 66% 29.86 in 10.0 mi SSW 6.9 mph - N/A   Scattered Clouds
10:33 AM 51.8 °F - 41.0 °F 67% 29.86 in 10.0 mi SSW 5.8 mph - N/A   Scattered Clouds
10:53 AM 51.8 °F - 41.0 °F 67% 29.85 in 10.0 mi South 5.8 mph - N/A   Scattered Clouds
11:13 AM 51.8 °F - 41.0 °F 67% 29.84 in 10.0 mi South 8.1 mph - N/A   Mostly Cloudy
11:33 AM 51.8 °F - 42.8 °F 71% 29.84 in 10.0 mi SSW 6.9 mph - N/A   Scattered Clouds
11:53 AM 53.6 °F - 42.8 °F 67% 29.84 in 10.0 mi SW 5.8 mph - N/A   Scattered Clouds
12:13 PM 53.6 °F - 42.8 °F 67% 29.84 in 10.0 mi SSW 8.1 mph - N/A   Mostly Cloudy
12:33 PM 53.6 °F - 42.8 °F 67% 29.83 in 10.0 mi South 4.6 mph - N/A   Mostly Cloudy
12:53 PM 55.4 °F - 41.0 °F 58% 29.82 in 10.0 mi SSW 6.9 mph - N/A   Scattered Clouds
1:13 PM 53.6 °F - 41.0 °F 62% 29.81 in 10.0 mi SW 3.5 mph - N/A   Scattered Clouds
1:33 PM 57.2 °F - 41.0 °F 55% 29.80 in 10.0 mi South 4.6 mph - N/A   Scattered Clouds
1:53 PM 55.4 °F - 39.2 °F 54% 29.79 in 10.0 mi SW 5.8 mph - N/A   Scattered Clouds
2:13 PM 55.4 °F - 37.4 °F 51% 29.79 in 10.0 mi SW 5.8 mph - N/A   Scattered Clouds
2:33 PM 57.2 °F - 39.2 °F 51% 29.79 in 10.0 mi SW 6.9 mph - N/A   Scattered Clouds
2:53 PM 57.2 °F - 37.4 °F 48% 29.78 in 10.0 mi SSW 4.6 mph 16.1 mph N/A   Scattered Clouds
3:13 PM 57.2 °F - 37.4 °F 48% 29.78 in 10.0 mi SSW 6.9 mph - N/A   Scattered Clouds
3:33 PM 57.2 °F - 37.4 °F 48% 29.78 in 10.0 mi SW 5.8 mph - N/A   Scattered Clouds
3:53 PM 57.2 °F - 37.4 °F 48% 29.78 in 10.0 mi SSW 5.8 mph - N/A   Scattered Clouds
4:13 PM 60.8 °F - 37.4 °F 42% 29.77 in 10.0 mi South 4.6 mph - N/A   Scattered Clouds
4:33 PM 57.2 °F - 37.4 °F 48% 29.77 in 10.0 mi SW 4.6 mph - N/A   Scattered Clouds
4:53 PM 57.2 °F - 37.4 °F 48% 29.77 in 10.0 mi SW 5.8 mph - N/A   Scattered Clouds
5:13 PM 57.2 °F - 37.4 °F 48% 29.77 in 10.0 mi SSW 6.9 mph - N/A   Scattered Clouds
5:33 PM 60.8 °F - 37.4 °F 42% 29.76 in 10.0 mi SSW 4.6 mph - N/A   Clear
5:53 PM 59.0 °F - 35.6 °F 42% 29.76 in 10.0 mi Calm Calm - N/A   Scattered Clouds
6:13 PM 60.8 °F - 37.4 °F 42% 29.76 in 10.0 mi SW 6.9 mph - N/A   Scattered Clouds
6:33 PM 59.0 °F - 37.4 °F 45% 29.77 in 10.0 mi WSW 6.9 mph - N/A   Clear
6:53 PM 57.2 °F - 37.4 °F 48% 29.77 in 10.0 mi Calm Calm - N/A   Clear
7:13 PM 57.2 °F - 37.4 °F 48% 29.77 in 10.0 mi SSW 3.5 mph - N/A   Scattered Clouds
7:33 PM 57.2 °F - 37.4 °F 48% 29.77 in 10.0 mi South 3.5 mph - N/A   Scattered Clouds
7:53 PM 57.2 °F - 37.4 °F 48% 29.77 in 10.0 mi Calm Calm - N/A   Scattered Clouds
8:13 PM 55.4 °F - 39.2 °F 54% 29.77 in 10.0 mi Calm Calm - N/A   Clear
8:33 PM 51.8 °F - 41.0 °F 67% 29.78 in 10.0 mi Calm Calm - N/A   Clear
8:53 PM 48.2 °F - 42.8 °F 82% 29.78 in 10.0 mi Calm Calm - N/A   Scattered Clouds
9:13 PM 48.2 °F - 42.8 °F 82% 29.79 in 10.0 mi Calm Calm - N/A   Scattered Clouds
9:33 PM 46.4 °F - 41.0 °F 81% 29.79 in 10.0 mi Calm Calm - N/A   Clear
9:53 PM 44.6 °F - 39.2 °F 81% 29.79 in 10.0 mi Calm Calm - N/A   Clear
10:13 PM 42.8 °F - 39.2 °F 87% 29.79 in 10.0 mi Calm Calm - N/A   Clear
10:33 PM 41.0 °F - 37.4 °F 87% 29.79 in 10.0 mi Calm Calm - N/A   Clear
10:53 PM 39.2 °F - 37.4 °F 93% 29.79 in 10.0 mi Calm Calm - N/A   Clear
11:13 PM 39.2 °F - 35.6 °F 87% 29.79 in 10.0 mi Calm Calm - N/A   Clear
11:33 PM 37.4 °F - 35.6 °F 93% 29.79 in 10.0 mi Calm Calm - N/A   Clear
11:53 PM 37.4 °F - 35.6 °F 93% 29.79 in 10.0 mi Calm Calm - N/A   Clear